Погода Дзерджинское

Погода Дзерджинское : погода сейчас, прогноз погоды и архив. Всё, что Вы хотите узнать о погоде Дзерджинское!

Хотите узнать прогноз погоды Дзерджинское? Тогда Вам сюда: Погода Дзерджинское

Поиск расширенной информации на нашем сайте:

Другие новости

Новости СМИ2

Главная страница сайта

Новости сайта

03.07.2017

Напоминаем, что на нашем специализированном сайте Метеоцентр.Азия вы можете получить высокодетализированные автоматические прогнозы погоды по пунктам России, СНГ и мира в авиационном формате (включающие направление и скорость ветра, видимость, явления погоды, количество и форму облачности, нижнюю и верхнюю границу облачности).

Рекомендуем: Ремонт husqvarna проблема с хускварной husqvarna.

Погода Дзерджинское - сегодня

Время (UTC), дата Ветер
(°,м/с) 
Видим.   Явления Облачность Т
(°С)
Тd
(°С)
f(%) Тe
(°С)
Pmin
(гПа)
dP
(гПа)
Po
(мм)
O2
(г/м3)
Тmin Tmax R s Состояние
почвы
00 16.04.18 210 (ЮЗ) 20000 м    8/0 средняя 
[Ac trans]
+1.7 -6.3 55 +2  1008.8  -0.5  739  297  -2.1         
03 16.04.18 250 (З) 20000 м    8/4 600 м кучево-дожд., средняя 
[Cb calv|Ac trans]
+6.3 -4.7 45 +5  1007.7  -0.6  739  291           
06 16.04.18 240 (ЮЗ) 20000 м    9/9 600 м кучево-дожд. 
[Cb calv]
+7.5 -5.7 39 +7  1006.5  -1.2  738  290           
09 16.04.18 240 (ЮЗ) 10 км    9/9 600 м кучево-дожд., верхняя 
[Cb calv|Ci fib]
+10.5 -5.3 32 +11               
12 16.04.18 310 (СЗ) 20000 м    9/5 600 м кучево-дожд., верхняя 
[Cb calv|Ci]
+8.1 -3.6 43 +7  1003.9  -0.7  736  288    +10.9       
15 16.04.18 тихо ()   20000 м    ясно 
+3.3 -2 68 +3  1003.7  -0.6  736  293           
18 16.04.18 110 (В) 20000 м    ясно 
+0.8 -2 82 +1  1002.7  -1.2  735  295           
00 17.04.18 210 (ЮЗ) 20000 м    8/5 600 м кучево-дожд., верхняя 
[Cb calv|Ci fib]
+3.9 -5.5 50 +3  1003.1  1.1  735  292  -1.7         
03 17.04.18 240 (ЮЗ) 3{13}  20000 м    8/8 600 м кучево-дожд. 
[Cb calv]
+8.2 -4 42 +8  1002.1  -0.3  735  288           
12 17.04.18 300 (СЗ) 4{14}  20000 м  {ливн. осадки}  8/4 600 м кучево-дожд., верхняя 
[Cb calv|Ci fib]
+3.7 -7.6 43 +2  1005.4  1.4  737  294    +9.9  0.0     
15 17.04.18 260 (З) 20000 м    3/3 600 м кучево-дожд. 
[Cb calv]
+0.1 -6.5 61 -1  1006.8  1.1  738  298           
18 17.04.18 280 (З) 4{10}  20000 м    ясно 
-1.4 -7.6 63 -4  1008.8  1.8  739  300           
21 17.04.18 280 (З) 20000 м    3/3 600 м кучево-дожд. 
[Cb calv]
-2.7 -7.2 71 -4  1011.4  2.4  741  302           
00 18.04.18 270 (З) 20000 м  {ливн. осадки}  6/6 600 м кучево-дожд. 
[Cb calv]
-2.3 -7.3 69 -4  1013.3  1.9  742  302  -3.8    0.0     
09 18.04.18 310 (СЗ) 4{10}  20000 м    10/10 600 м кучево-дожд. 
[Cb calv]
+1.1 -13.9 32 -1  1016.9  745  300           
12 18.04.18 300 (СЗ) 20000 м    8/8 600 м кучево-дожд. 
[Cb calv]
-0.3 -13.7 36 -3  1017.9  0.9  746  302    +2.9  0.0     
15 18.04.18 290 (З) 20000 м    6/4 600 м кучево-дожд., верхняя 
[Cb calv|Ci fib]
-2.1 -13.3 42 -3  1019  746  304           
18 18.04.18 290 (З) 20000 м    ясно 
-4.5 -12.4 54 -4  1020  0.8  747  307           
21 18.04.18 тихо ()   20000 м    8/8 2000 м средняя 
[Ac trans]
-5.6 -9.3 75 -6  1021.3  1.1  748  309           
00 19.04.18 тихо ()   20000 м    8/8 2000 м средняя 
[Ac trans]
-4.4 -8.4 74 -4  1021.9  0.7  748  307  -6.1         
03 19.04.18 300 (СЗ) 20000 м    8/8 600 м кучево-дожд. 
[Cb calv]
-1.2 -12.3 43 -2  1021.8  0.2  749  304           
06 19.04.18 290 (З) 20000 м    8/8 600 м кучево-дожд. 
[Cb calv]
-0 -12.7 38 -2  1021  -0.7  748  303           
09 19.04.18 330 (СЗ) 20000 м    8/5 600 м верхняя 
[Cu hum|Ci fib]
+1.4 -13.3 33 1020.1  -0.8  747  301           
12 19.04.18 300 (СЗ) 20000 м    4/4 600 м 
[Cu hum]
+0.6 -13.3 34 +1  1020  -0.1  747  302    +2.2       
15 19.04.18 130 (ЮВ) 20000 м    3/0 верхняя 
[Ci fib]
-4.3 -9.1 69 -4  1020.7  0.3  748  307           
Время (UTC), дата Ветер
(°,м/с) 
Видим.   Явления Облачность Т
(°С)
Тd
(°С)
f(%) Тe
(°С)
Pmin
(гПа)
dP
(гПа)
Po
(мм)
O2
(г/м3)
Тmin Tmax R s Состояние
почвы

Для получения пояснительной информации подведите курсор к названию столбца.

ПОГОДА Дзерджинское - архив

Всё, что Вы хотите узнать о погоде Дзерджинское - удобно и подробно!

Выберите нужную дату (начиная с 1 января 2015* года) и нажмите кнопку "Найти".
Будут отображены архивные сводки погоды по пункту Дзерджинское, начиная с указанной даты.


Отображать данные в формате CSV (для использования в таблицах Excel)


Внимание! Наш архив погоды предназначен исключительно для личного некоммерческого использования в познавательных целях. Если Вам необходимы официальные справки о состоянии погоды (для производственных, юридических, коммерческих и т.п. целей), обращайтесь в органы Росгидромета.

*Примечание: данная дата относится к архиву по метеостанциям СССР (Россия, СНГ, Балтия).
Архив по метеостанциям Зарубежной Европы и Азии (кроме Китая) хранится 10 дней, по другим регионам земного шара (Китай, Африка, Америка, Австралия, Океания) - 1 день.

Дзерджинское - район местоположения метеостанции


Название, широта, долгота, высота метеостанции:
Дзерджинское 56.9°ш. 95.2°д. 188 м над ур. моря [Российская Федерация]

Дополнительная информация

В oтличие oт бoльшинства пoгoдных сайтoв мы публикуем пoдрoбную метеoинфoрмацию в детальнoм прoфессиoнальнoм фoрмате.

Характеристики температуры и влажнoсти вoздуха измеряются на высoте 2 м в тени вдали oт зданий и деревьев.
Скoрoсть ветра измеряется на высoте 10 м (на урoвне рoста челoвека скoрoсть ветра ниже в 1.5-2 раза). Если метеoстанция нахoдится в гoрoде или в лесу, тo скoрoсть ветра занижена на 2-4 м/с пo сравнению с oткрытым местoм. Скoрoсть ветра над акватoриями крупных рек и oзёр, а также на вершинах хoлмoв на 2-5 м/с выше, чем в oбычных услoвиях.
Атмoсфернoе давление в разных тoчках местнoсти мoжет значительнo oтличаться oт давления на метеoстанции, в зависимoсти oт услoвий рельефа (при пoдъёме на 10 м давление пoнижается примернo на 1 мм рт.ст.).